DMSP 5D-2 F13 DEB, 42268

Orbit data source: Space-Track

DMSP 5D-2 F13 DEB, 42268 is space debris in SSO originally from a launch on Fri, 24 Mar 1995 UTC launched from the Air Force Western Test Range (AFWTR). Debris objects in space refer to the collection of defunct objects orbiting the Earth. Examples of debris include non-operational satellites, rocket bodies, and fragments generated from explosions, collisions, or faulty payload assembly.

Loading next visibility...
Identifier
42268, 1995-015GJ
Orbit
SSO
Country
Flag of USUS
Related business
Manufacturer
Unknown
Mission
Spacecraft
Bus & Motor
Unknown
Mass
Unknown
Launch date (UTC)
1995-03-24 (31 years ago)
Launch vehicle
Unknown
Launch site
Air Force Western Test Range (AFWTR)
Object type
Payload
Rocket body
Debris
Shape & HBR
Unknown shape, 0.1 m
Radar Cross Section
Small (<0.1 m²)

Expand to show TLE details & history
Last TLE update: 1 day ago

TLE from 1 day ago
0 DMSP 5D-2 F13 DEB
1 42268U 95015GJ  26035.03291219  .00004181  00000-0  23915-2 0  9991
2 42268  98.7360 238.3290 0117630   7.4362 352.8518 14.06619231548567
Epoch: 2026-02-04T00:47Z
TLE epoch observation values (Epoch: 2026-02-04T00:47:23.613Z)
Latitude
0.00005°
Longitude
92.2753°
Altitude
789.25 km
Speed
7.502 km/s
True Right ascension
15h 53m 18s
True Declination
0° 00' 00"
Sunlit
Object was in daylight at epoch
Visualization orbit readout
Latitude
Unknown
Longitude
Unknown
Altitude
Unknown
Speed
Unknown
Apparent Right ascension
Unknown
Apparent Declination
Unknown
Sunlit
N/A
Visualization observer readout
Local Sidereal Time
02:31:55
Azimuth
Unknown
Elevation
Unknown
Doppler factor
Unknown
Orbital elements
Apogee altitude
953.379 km
Perigee altitude
782.903 km
Semi-major axis
7,246.278 km
Eccentricity
0.01176
Inclination
98.736°
RAAN
238.329°
Arg. of periapsis
7.4362°
True anomaly
352.68159°
Mean anomaly
352.8518°
Eccentric anomaly
352.76694°
Mean motion
3.51861 °/min
Orbital period
102.31 mins
BSTAR
0.0023915
Loading maneuver chart data...
Computing Atmospheric mass density...

Documentation

Showing up to 5 results
|